[[{"header":{"parameterUnit":"m.s-1","parameterCategory":1,"la1":30.2991,"la2":30.254,"lo1":-89.0895,"lo2":-89.0444,"dy":0.0017,"dx":0.0017,"nx":28,"ny":28,"refTime":"2024-03-18T21:00:00:Z","depth":0,"parameterNumber":2,"parameterNumberName":"U-component_of_WINDS"},"data":[0,0,0,0,0,0,0,0,0,0,0,0,0,0,0,0,0,0,0,0,0,0,0,0,0,0,0,0,0,0,0,0,0,0,0,0,0,0,0,0,0,0,0,0,0,0,0,0,0,0,0,0,0,0,0,0,0,0,1.1402,1.1403,0,1.145,1.1451,1.1451,1.1431,1.1429,1.1428,1.1427,1.1474,1.1476,1.1479,0,0,0,0,0,0,0,0,0,0,0,0,0,1.1291,1.1293,1.1402,1.1403,1.1403,1.145,1.1451,1.1451,1.1431,1.1429,1.1428,1.1427,1.1473,1.1476,1.1479,0,0,0,0,0,0,0,0,0,0,0,0,0,1.1339,1.1294,1.1402,1.1399,1.1399,1.145,1.1451,1.1452,1.1431,1.1429,1.1428,1.1426,1.1472,1.1476,1.1479,1.1535,0,0,1.149,1.1491,0,0,0,0,0,0,0,0,1.1336,1.1343,1.1399,1.1399,1.14,1.1433,1.1429,1.148,1.1432,1.1419,1.1427,1.1425,1.1461,1.1466,1.1478,1.1538,1.154,1.149,1.1492,1.1494,1.1495,0,0,0,0,0,0,0,1.1333,1.1341,1.1421,1.14,1.14,1.1394,1.1399,1.1438,1.1449,1.142,1.1418,1.1425,1.1461,1.1475,1.1479,1.154,1.149,1.1493,1.1495,1.1497,1.1647,1.1649,0,0,0,0,0,0,1.133,1.1338,1.142,1.1423,1.1363,1.1398,1.1403,1.1424,1.1449,1.1451,1.1426,1.1423,1.147,1.1475,1.1481,1.1548,1.1494,1.1497,1.1499,1.1645,1.1647,1.165,0,0,0,0,0,0,1.1327,1.1337,1.1418,1.138,1.139,1.1401,1.1425,1.1426,1.1439,1.1453,1.1455,1.1438,1.1469,1.1476,1.1522,1.1549,1.1498,1.1502,1.1643,1.1646,1.1648,1.1682,0,0,0,0,0,0,1.1324,1.1337,1.1359,1.1381,1.1392,1.1459,1.1426,1.1428,1.1446,1.1443,1.1465,1.1467,1.1468,1.1517,1.1525,1.1553,1.1504,1.164,1.1644,1.1648,1.1679,1.1686,1.1692,0,0,0,0,0,1.132,1.1366,1.136,1.137,1.142,1.146,1.1467,1.1467,1.1448,1.147,1.1479,1.1467,1.1545,1.1522,1.1531,1.156,1.1639,1.1643,1.1647,1.1676,1.1684,1.1692,0,0,0,0,0,0,1.1346,1.1369,1.1362,1.1416,1.1437,1.1457,1.1484,1.1476,1.1502,1.1498,1.1497,1.1502,1.155,1.156,1.1533,1.1616,1.1589,1.1595,1.1607,1.1616,1.1622,1.1618,1.1507,0,0,0,0,0,1.1358,1.1389,1.1407,1.1453,1.1464,1.1473,1.149,1.1489,1.1509,1.1518,1.153,1.155,1.1579,1.1598,1.1626,1.168,1.1684,1.1705,1.1712,1.1717,1.1722,1.1751,1.176,1.1664,1.1664,1.1663,0,0,1.1382,1.1399,1.1419,1.1459,1.1474,1.1506,1.148,1.1515,1.1538,1.1523,1.1567,1.1577,1.1599,1.1649,1.1672,1.1659,1.175,1.1722,1.1727,1.1729,1.1756,1.1765,1.1774,1.1667,1.1666,1.1666,0,0,1.1444,1.146,1.1499,1.1516,1.154,1.1546,1.1555,1.1577,1.1583,1.1627,1.1616,1.1644,1.1694,1.171,1.1725,1.1793,1.1782,1.1802,1.1836,1.1864,1.1871,1.1878,1.1901,1.191,1.1807,1.1807,1.1807,0,1.1471,1.1519,1.1521,1.1557,1.1574,1.1563,1.1602,1.1618,1.165,1.1662,1.1647,1.171,1.1724,1.1777,1.1794,1.1807,1.1817,1.1798,1.1871,1.1877,1.1883,1.1905,1.1914,1.1809,1.1809,1.1809,1.1808,0,1.1551,1.1585,1.1614,1.1646,1.1667,1.1704,1.171,1.1731,1.1729,1.1735,1.178,1.1797,1.1827,1.184,1.1838,1.1894,1.1885,1.1871,1.1843,1.1895,1.1915,1.1924,1.1812,1.1811,1.1811,1.181,0,0,1.1629,1.1661,1.1672,1.1686,1.1712,1.1737,1.1774,1.1805,1.1822,1.1845,1.1875,1.1918,1.1905,1.1922,1.1921,1.1946,1.1997,1.1928,1.1929,1.194,1.2059,1.2068,1.2078,1.1991,1.1993,1.1994,1.2056,0,1.1691,1.1757,1.1759,1.1818,1.1849,1.1838,1.187,1.189,1.1897,1.1923,1.1931,1.1962,1.1943,1.1953,1.1977,1.1986,1.2021,1.1982,1.2018,1.2019,1.2011,1.2089,1.2099,1.2158,1.2065,1.2066,1.2067,0,1.1772,1.1798,1.1861,1.1882,1.1895,1.1924,1.1952,1.1978,1.1999,1.2002,1.2021,1.2017,1.2054,1.2027,1.2077,1.205,1.2065,1.2072,1.2074,1.2076,1.2045,1.2092,1.2176,1.2184,1.208,1.2079,1.2078,0,1.1821,1.1871,1.1915,1.1928,1.1954,1.1974,1.1986,1.2006,1.2024,1.2048,1.206,1.2088,1.2103,1.2125,1.2127,1.2108,1.2178,1.2151,1.2181,1.218,1.2195,1.2193,1.2281,1.2207,1.2206,1.2206,1.2206,0,1.189,1.1928,1.1937,1.1964,1.2007,1.2009,1.205,1.206,1.2078,1.2106,1.2099,1.2125,1.2128,1.2155,1.2158,1.2198,1.2205,1.2208,1.2208,1.2208,1.2208,1.2217,1.2213,1.2209,1.2208,1.2208,1.2207,0,1.1951,1.1959,1.2006,1.2027,1.2033,1.2064,1.2081,1.2107,1.2114,1.2149,1.2157,1.2168,1.2199,1.2205,1.2242,1.2243,1.2291,1.2288,1.2284,1.2283,1.2312,1.2309,1.2408,1.242,1.2339,1.234,1.2341,0,1.1993,1.2023,1.2048,1.2066,1.2079,1.2109,1.2128,1.2131,1.2151,1.2177,1.2199,1.223,1.2254,1.2304,1.2315,1.2343,1.2339,1.2372,1.2343,1.2342,1.2338,1.2336,1.2338,1.2377,1.2378,1.2378,1.2379,0,1.2068,1.207,1.2098,1.2127,1.2149,1.2172,1.2194,1.2209,1.2215,1.2237,1.2269,1.2289,1.2326,1.2356,1.2384,1.2396,1.2388,1.2388,1.2396,1.2396,1.2392,1.2393,1.2298,1.2385,1.2385,1.2384,1.2384,1.2384,1.212,1.2145,1.2167,1.2198,1.2214,1.2235,1.2259,1.227,1.2297,1.2328,1.2328,1.2363,1.2383,1.242,1.2433,1.246,1.245,1.2462,1.2464,1.2467,1.2469,1.2389,1.2465,1.2465,1.2465,1.2465,1.2465,0,1.2193,1.2207,1.2235,1.2265,1.2289,1.2282,1.2305,1.2325,1.2356,1.2376,1.2401,1.2437,1.2467,1.248,1.2509,1.2528,1.2525,1.2535,1.2533,1.2535,1.2478,1.2467,1.2537,1.2537,1.2537,1.2537,1.2537,1.2537,1.2234,1.2276,1.2281,1.2331,1.2344,1.2379,1.2393,1.2411,1.2427,1.2468,1.2493,1.2502,1.2519,1.2549,1.2575,1.2578,1.2588,1.26,1.2601,1.2547,1.2539,1.2532,1.2522,1.2602,1.2602,1.2656,1.2657,1.2657]},{"header":{"parameterUnit":"m.s-1","parameterCategory":1,"la1":30.2991,"la2":30.254,"lo1":-89.0895,"lo2":-89.0444,"dy":0.0017,"dx":0.0017,"nx":28,"ny":28,"refTime":"2024-03-18T21:00:00:Z","depth":0,"parameterNumber":3,"parameterNumberName":"V-component_of_WINDS"},"data":[0,0,0,0,0,0,0,0,0,0,0,0,0,0,0,0,0,0,0,0,0,0,0,0,0,0,0,0,0,0,0,0,0,0,0,0,0,0,0,0,0,0,0,0,0,0,0,0,0,0,0,0,0,0,0,0,0,0,-1.8413,-1.8415,0,-1.855,-1.8552,-1.8554,-1.8592,-1.8591,-1.859,-1.8589,-1.873,-1.8735,-1.8739,0,0,0,0,0,0,0,0,0,0,0,0,0,-1.8185,-1.8189,-1.8413,-1.8415,-1.8417,-1.855,-1.8552,-1.8554,-1.8592,-1.8591,-1.859,-1.8589,-1.8729,-1.8734,-1.8739,0,0,0,0,0,0,0,0,0,0,0,0,0,-1.83,-1.8191,-1.8413,-1.8452,-1.8456,-1.855,-1.8552,-1.8554,-1.8592,-1.8591,-1.859,-1.8588,-1.8727,-1.8733,-1.874,-1.8805,0,0,-1.8761,-1.8764,0,0,0,0,0,0,0,0,-1.8293,-1.8308,-1.8444,-1.8449,-1.8455,-1.8553,-1.8523,-1.8638,-1.8592,-1.854,-1.8589,-1.8588,-1.8672,-1.8683,-1.8712,-1.8812,-1.8818,-1.8761,-1.8765,-1.8768,-1.877,0,0,0,0,0,0,0,-1.8285,-1.8302,-1.8467,-1.8446,-1.8453,-1.8463,-1.8477,-1.8545,-1.8611,-1.8545,-1.8548,-1.8564,-1.8675,-1.8705,-1.8715,-1.882,-1.8761,-1.8767,-1.8771,-1.8774,-1.8981,-1.8983,0,0,0,0,0,0,-1.827,-1.8295,-1.8463,-1.8472,-1.8369,-1.8468,-1.8484,-1.8522,-1.8611,-1.8623,-1.8564,-1.8565,-1.8694,-1.8707,-1.872,-1.8803,-1.8768,-1.8774,-1.8778,-1.898,-1.8981,-1.8983,0,0,0,0,0,0,-1.8265,-1.8285,-1.8458,-1.8384,-1.8407,-1.8473,-1.8515,-1.8526,-1.8556,-1.8625,-1.8637,-1.8583,-1.8694,-1.8711,-1.8784,-1.8808,-1.8777,-1.8784,-1.8978,-1.898,-1.8982,-1.8967,0,0,0,0,0,0,-1.8259,-1.8283,-1.8308,-1.8385,-1.8411,-1.8518,-1.8517,-1.8529,-1.8567,-1.8569,-1.8646,-1.8658,-1.8694,-1.8774,-1.8791,-1.8817,-1.8789,-1.8976,-1.8979,-1.8982,-1.8966,-1.8969,-1.8971,0,0,0,0,0,-1.825,-1.8298,-1.8309,-1.8329,-1.8443,-1.852,-1.8535,-1.8575,-1.8569,-1.8595,-1.864,-1.8655,-1.8803,-1.8781,-1.88,-1.8829,-1.8975,-1.8978,-1.8981,-1.8965,-1.8968,-1.8971,0,0,0,0,0,0,-1.8222,-1.8309,-1.8322,-1.8396,-1.845,-1.8526,-1.856,-1.8578,-1.8635,-1.8634,-1.8683,-1.87,-1.8769,-1.8807,-1.8781,-1.8897,-1.8889,-1.8896,-1.887,-1.8874,-1.8876,-1.8865,-1.8794,0,0,0,0,0,-1.8225,-1.8279,-1.8352,-1.841,-1.8437,-1.8493,-1.8528,-1.8555,-1.8613,-1.8637,-1.8687,-1.8743,-1.8802,-1.884,-1.8898,-1.8972,-1.8989,-1.9001,-1.9003,-1.9005,-1.9011,-1.9053,-1.9059,-1.8994,-1.8994,-1.8994,0,0,-1.823,-1.8284,-1.8315,-1.8406,-1.8451,-1.8507,-1.8512,-1.8571,-1.8613,-1.8646,-1.8718,-1.8756,-1.8823,-1.8896,-1.8931,-1.8929,-1.9033,-1.9009,-1.901,-1.9015,-1.9057,-1.9063,-1.9069,-1.8996,-1.8996,-1.8995,0,0,-1.8268,-1.8314,-1.8368,-1.8414,-1.8482,-1.852,-1.8533,-1.8607,-1.8634,-1.8707,-1.8733,-1.8784,-1.8884,-1.8931,-1.8967,-1.9025,-1.9041,-1.9042,-1.9056,-1.9096,-1.9101,-1.9106,-1.9127,-1.9134,-1.9048,-1.9048,-1.9048,0,-1.8266,-1.8351,-1.8394,-1.8451,-1.849,-1.8523,-1.8578,-1.862,-1.8704,-1.8731,-1.8728,-1.8855,-1.8902,-1.8987,-1.9001,-1.903,-1.9047,-1.9033,-1.9097,-1.9102,-1.9108,-1.9128,-1.9135,-1.9047,-1.9047,-1.9048,-1.9048,0,-1.8345,-1.8404,-1.8439,-1.8519,-1.8563,-1.8619,-1.8671,-1.871,-1.8733,-1.8771,-1.8846,-1.8903,-1.8974,-1.8997,-1.902,-1.9086,-1.9082,-1.9088,-1.9081,-1.9113,-1.9133,-1.9141,-1.9047,-1.9047,-1.9047,-1.9047,0,0,-1.8368,-1.8473,-1.8485,-1.8522,-1.8601,-1.8647,-1.8705,-1.8774,-1.8807,-1.8864,-1.8915,-1.9,-1.9005,-1.9047,-1.9076,-1.9112,-1.9154,-1.9113,-1.9115,-1.9119,-1.9231,-1.9226,-1.9234,-1.9166,-1.9168,-1.9169,-1.9225,0,-1.8416,-1.8521,-1.8561,-1.8647,-1.8702,-1.8734,-1.8785,-1.8839,-1.8876,-1.8929,-1.8971,-1.903,-1.9033,-1.9059,-1.9095,-1.9141,-1.9177,-1.9138,-1.9213,-1.9215,-1.9195,-1.9245,-1.924,-1.929,-1.9233,-1.9235,-1.9236,0,-1.8486,-1.8544,-1.8635,-1.8707,-1.8732,-1.8777,-1.8844,-1.8894,-1.8956,-1.8981,-1.9028,-1.9056,-1.9118,-1.9108,-1.9196,-1.9168,-1.9201,-1.9229,-1.9232,-1.924,-1.9227,-1.9254,-1.9307,-1.9314,-1.9248,-1.9247,-1.9246,0,-1.8494,-1.8595,-1.8662,-1.8693,-1.878,-1.8811,-1.8848,-1.891,-1.8949,-1.9008,-1.9034,-1.91,-1.9136,-1.9186,-1.9231,-1.9219,-1.9314,-1.9308,-1.9337,-1.9336,-1.9355,-1.9353,-1.9414,-1.9377,-1.9377,-1.9377,-1.9377,0,-1.8543,-1.8597,-1.8667,-1.8708,-1.877,-1.8817,-1.8878,-1.8918,-1.8972,-1.9022,-1.9055,-1.9101,-1.9157,-1.9211,-1.9247,-1.9314,-1.933,-1.9352,-1.9361,-1.9349,-1.9346,-1.9372,-1.9369,-1.9379,-1.9379,-1.9378,-1.9378,0,-1.8562,-1.8611,-1.8686,-1.8763,-1.8783,-1.8825,-1.8891,-1.8933,-1.8972,-1.9036,-1.9053,-1.9115,-1.9181,-1.923,-1.9315,-1.9339,-1.9411,-1.942,-1.9389,-1.9394,-1.942,-1.9417,-1.9499,-1.9512,-1.9467,-1.9467,-1.9467,0,-1.8589,-1.8632,-1.8713,-1.8749,-1.8786,-1.8844,-1.8884,-1.8933,-1.8973,-1.9049,-1.9081,-1.9149,-1.9206,-1.9309,-1.9362,-1.9427,-1.9438,-1.9463,-1.9448,-1.9436,-1.9439,-1.9436,-1.944,-1.9464,-1.9464,-1.9465,-1.9465,0,-1.8634,-1.8656,-1.8713,-1.8779,-1.8826,-1.8881,-1.8935,-1.8963,-1.9022,-1.9066,-1.9133,-1.9177,-1.9264,-1.9331,-1.9402,-1.9442,-1.9463,-1.9469,-1.9479,-1.9468,-1.9448,-1.9459,-1.9394,-1.9467,-1.9467,-1.9466,-1.9466,-1.9466,-1.8658,-1.8698,-1.8761,-1.8824,-1.887,-1.8921,-1.8964,-1.9009,-1.9066,-1.9141,-1.9166,-1.9235,-1.9298,-1.9396,-1.9436,-1.9492,-1.9492,-1.9507,-1.9511,-1.9513,-1.9512,-1.944,-1.9505,-1.9505,-1.9505,-1.9505,-1.9505,0,-1.8704,-1.8747,-1.8804,-1.888,-1.8929,-1.8946,-1.9007,-1.9048,-1.9109,-1.9165,-1.922,-1.9298,-1.9364,-1.9422,-1.9491,-1.9524,-1.9536,-1.954,-1.9538,-1.9547,-1.9508,-1.9492,-1.953,-1.953,-1.953,-1.953,-1.953,-1.953,-1.8734,-1.8802,-1.8832,-1.8924,-1.8966,-1.9034,-1.9068,-1.9116,-1.9161,-1.9246,-1.9301,-1.9339,-1.9397,-1.947,-1.9531,-1.9546,-1.957,-1.9572,-1.959,-1.9553,-1.955,-1.9547,-1.9532,-1.9577,-1.9577,-1.9624,-1.9625,-1.9625]}]]